FENGYUN 1C DEB *, 47003

Orbit data source: Space-Track

FENGYUN 1C DEB *, 47003 is space debris in SSO originally from a launch on Mon, 10 May 1999 UTC launched from the Taiyaun Space Center, China (TSC). Fengyun 1C debris stems from the Chinese weather satellite Fengyun-1C, which was intentionally destroyed by a Chinese anti-satellite missile in 2007. This event dramatically increased the amount of space debris, with thousands of trackable fragments posing hazards to satellites and human spaceflight. The Fengyun 1C debris cloud has become a focal point in discussions about space sustainability and the need for international regulations to prevent the creation of new debris.

Loading next visibility...
Identifier
47003, 1999-025FAD
Orbit
SSO
Country
Flag of CNCN / PRC
Related business
Manufacturer
Unknown
Mission
Spacecraft
Bus & Motor
Unknown
Mass
Unknown
Launch date (UTC)
1999-05-10 (27 years ago)
Launch vehicle
Unknown
Launch site
Taiyaun Space Center, China (TSC)
Object type
Payload
Rocket body
Debris
Shape & HBR
Unknown shape, 0.1 m
Radar Cross Section
Small (<0.1 m²)

Expand to show TLE details & history
Last TLE update: 1 week ago

TLE from 1 week ago
0 FENGYUN 1C DEB *
1 47003U 99025FAD 26160.04566176 -.00000018  00000-0  25756-4 0  9998
2 47003  98.8688  75.4827 0331385 330.9210  27.3817 13.42915358676993
Epoch: 2026-06-09T01:05Z
TLE epoch observation values (Epoch: 2026-06-09T01:05:45.176Z)
Latitude
0.00005°
Longitude
161.62066°
Altitude
883.02 km
Speed
7.518 km/s
True Right ascension
05h 01m 55s
True Declination
0° 00' 00"
Sunlit
Object was in daylight at epoch
Visualization orbit readout
Latitude
Unknown
Longitude
Unknown
Altitude
Unknown
Speed
Unknown
Apparent Right ascension
Unknown
Apparent Declination
Unknown
Sunlit
N/A
Visualization observer readout
Local Sidereal Time
01:36:38
Azimuth
Unknown
Elevation
Unknown
Doppler factor
Unknown
Orbital elements
Apogee altitude
1,343.376 km
Perigee altitude
848.033 km
Semi-major axis
7,473.841 km
Eccentricity
0.03314
Inclination
98.8688°
RAAN
75.4827°
Arg. of periapsis
330.921°
True anomaly
29.19446°
Mean anomaly
27.3817°
Eccentric anomaly
28.2813°
Mean motion
3.35913 °/min
Orbital period
107.17 mins
BSTAR
0.000025756
Loading maneuver chart data...
Computing Atmospheric mass density...

Documentation

Showing up to 5 results
|